�N����,����,�~����,�C��,���x,�C��,����,���ϕ���,�ő�u�ԕ���,�ő厞����,���˗�,�I�_���x,�n�����x,�ő啗���N��,DTYPE
"18/10/11","00:10",0.0,18.5,95.4,1010.9,326.4,2.5,3.9,327.9,0.00,17.8,20.9,"00:07:36",1
"18/10/11","00:20",0.2,18.4,95.5,1010.7,312.4,1.7,3.2,327.1,0.00,17.7,21.2,"00:10:08",1
"18/10/11","00:30",0.0,18.4,95.5,1010.7,301.7,1.5,3.1,343.1,0.00,17.7,20.7,"00:21:44",1
"18/10/11","00:40",0.0,18.4,95.5,1010.7,322.4,1.8,2.8,328.8,0.00,17.7,20.9,"00:39:12",1
"18/10/11","00:50",0.0,18.3,95.5,1010.7,326.2,2.6,3.7,322.9,0.00,17.6,20.9,"00:45:20",1
"18/10/11","01:00",0.0,18.2,95.4,1010.7,334.0,2.0,3.5,341.0,0.00,17.5,20.7,"00:57:52",1
"18/10/11","01:10",0.0,18.2,95.3,1010.9,326.8,2.2,4.0,350.7,0.00,17.5,20.7,"01:07:00",1
"18/10/11","01:20",0.0,18.2,95.3,1010.9,322.4,2.0,3.4,309.5,0.00,17.5,20.7,"01:10:24",1
"18/10/11","01:30",0.0,18.2,95.1,1010.4,327.6,1.8,3.3,346.0,0.00,17.4,20.8,"01:23:28",1
"18/10/11","01:40",0.0,18.2,95.0,1010.9,329.9,2.3,5.0,336.1,0.00,17.4,21.0,"01:38:40",1
"18/10/11","01:50",0.0,18.2,94.9,1010.7,326.2,2.5,4.1,327.9,0.00,17.4,20.7,"01:46:40",1
"18/10/11","02:00",0.0,18.2,94.9,1010.4,328.0,2.1,3.3,341.5,0.00,17.4,20.8,"01:54:24",1
"18/10/11","02:10",0.0,18.2,94.7,1010.7,324.4,2.2,3.7,312.7,0.00,17.4,20.7,"02:01:36",1
"18/10/11","02:20",0.0,18.2,94.8,1010.7,321.1,2.2,3.4,338.1,0.00,17.4,20.7,"02:16:16",1
"18/10/11","02:30",0.0,18.2,94.7,1010.4,312.6,2.5,4.1,338.1,0.00,17.4,20.7,"02:28:08",1
"18/10/11","02:40",0.0,18.2,94.7,1010.2,325.8,2.7,3.7,332.0,0.00,17.4,20.7,"02:31:12",1
"18/10/11","02:50",0.0,18.2,94.6,1010.4,325.0,2.2,4.2,338.2,0.00,17.4,20.6,"02:41:12",1
"18/10/11","03:00",0.2,18.1,94.6,1010.4,326.8,2.3,4.0,326.5,0.00,17.3,20.7,"02:56:48",1
"18/10/11","03:10",0.0,18.1,94.6,1010.2,323.2,2.3,3.4,338.3,0.00,17.3,20.6,"03:04:56",1
"18/10/11","03:20",0.0,18.1,94.6,1010.2,328.4,2.1,3.7,334.2,0.00,17.3,20.5,"03:14:00",1
"18/10/11","03:30",0.0,18.1,94.6,1010.2,327.0,2.2,3.6,335.7,0.00,17.3,20.8,"03:24:40",1
"18/10/11","03:40",0.0,18.0,94.6,1010.4,327.5,2.5,4.4,337.1,0.00,17.2,20.7,"03:39:12",1
"18/10/11","03:50",0.0,18.1,94.5,1010.2,323.0,2.0,3.3,312.9,0.00,17.2,20.7,"03:46:00",1
"18/10/11","04:00",0.0,18.1,94.6,1010.2,295.5,1.5,2.0,311.5,0.00,17.3,20.7,"03:55:36",1
"18/10/11","04:10",0.0,18.1,94.6,1010.0,317.5,2.2,3.3,328.8,0.00,17.3,20.5,"04:03:36",1
"18/10/11","04:20",0.0,18.1,94.6,1010.4,316.8,2.1,3.3,330.9,0.00,17.3,20.7,"04:17:28",1
"18/10/11","04:30",0.0,18.1,94.4,1010.2,322.4,2.5,3.9,330.1,0.00,17.2,20.6,"04:26:40",1
"18/10/11","04:40",0.0,18.1,94.4,1010.7,318.2,2.1,3.3,316.8,0.00,17.2,20.5,"04:38:40",1
"18/10/11","04:50",0.0,18.1,94.3,1010.4,327.9,2.7,3.9,335.0,0.00,17.2,20.6,"04:40:48",1
"18/10/11","05:00",0.0,18.1,94.2,1010.4,317.2,2.2,3.4,336.0,0.00,17.2,20.6,"04:59:04",1
"18/10/11","05:10",0.0,18.1,94.3,1010.4,332.9,1.6,2.7,323.2,0.00,17.2,20.5,"05:09:20",1
"18/10/11","05:20",0.0,18.1,94.3,1010.7,312.1,2.5,4.3,328.9,0.00,17.2,20.5,"05:15:12",1
"18/10/11","05:30",0.0,18.0,94.4,1010.4,315.9,2.0,3.6,326.8,0.00,17.1,20.7,"05:22:40",1
"18/10/11","05:40",0.0,18.0,94.5,1010.2,318.8,2.5,4.5,330.3,0.00,17.1,20.3,"05:37:52",1
"18/10/11","05:50",0.0,18.0,94.6,1010.4,322.9,2.5,3.7,322.0,0.00,17.2,20.6,"05:41:28",1
"18/10/11","06:00",0.0,17.9,94.7,1010.2,324.0,2.0,3.3,324.2,0.00,17.1,20.5,"05:53:20",1
"18/10/11","06:10",0.0,17.8,94.8,1010.2,321.3,2.2,3.3,311.0,0.00,17.0,20.5,"06:07:04",1
"18/10/11","06:20",0.0,17.9,94.9,1010.0,326.7,2.6,3.6,323.9,0.00,17.1,20.5,"06:19:36",1
"18/10/11","06:30",0.0,17.9,94.9,1010.2,322.7,2.2,3.6,341.6,0.00,17.1,20.4,"06:21:44",1
"18/10/11","06:40",0.0,17.9,94.9,1010.0,302.2,1.3,2.6,338.5,0.00,17.1,20.4,"06:30:08",1
"18/10/11","06:50",0.0,17.9,95.0,1010.0,305.8,1.5,2.6,335.3,0.00,17.1,20.7,"06:44:16",1
"18/10/11","07:00",0.0,17.9,95.0,1010.4,317.7,2.5,4.9,323.0,0.00,17.1,20.4,"06:58:48",1
"18/10/11","07:10",0.0,17.9,94.9,1010.4,322.7,2.2,4.1,339.5,0.00,17.1,20.4,"07:00:08",1
"18/10/11","07:20",0.0,17.9,95.0,1010.7,320.8,2.3,4.0,332.8,0.00,17.1,20.5,"07:16:32",1
"18/10/11","07:30",0.0,17.8,95.0,1010.9,327.0,2.3,3.5,303.9,0.00,17.0,20.6,"07:27:36",1
"18/10/11","07:40",0.0,17.9,95.1,1010.9,328.3,2.0,3.2,331.7,0.00,17.1,20.4,"07:39:52",1
"18/10/11","07:50",0.0,18.0,95.0,1010.9,319.9,1.7,3.1,345.0,0.00,17.2,20.4,"07:41:36",1
"18/10/11","08:00",0.0,18.0,94.9,1010.7,324.3,2.5,4.0,340.1,0.00,17.2,20.4,"07:59:28",1
"18/10/11","08:10",0.0,17.9,94.9,1010.9,323.8,2.5,4.1,337.5,0.00,17.1,20.4,"08:00:24",1
"18/10/11","08:20",0.0,18.0,94.6,1010.9,321.1,2.5,5.1,342.7,0.01,17.2,20.5,"08:13:52",1
"18/10/11","08:30",0.0,18.1,94.5,1010.9,318.1,2.1,4.3,304.9,0.01,17.2,20.3,"08:22:48",1
"18/10/11","08:40",0.0,18.1,94.2,1010.9,323.9,1.7,3.5,332.7,0.01,17.2,20.5,"08:35:28",1
"18/10/11","08:50",0.0,18.2,94.1,1010.9,304.2,1.6,2.6,336.0,0.01,17.3,20.5,"08:41:20",1
"18/10/11","09:00",0.0,18.1,93.4,1011.2,302.2,1.8,3.4,348.4,0.01,17.1,20.4,"08:54:08",1
"18/10/11","09:10",0.0,18.0,92.8,1011.2,311.2,2.1,4.0,305.6,0.02,16.9,20.4,"09:02:48",1
"18/10/11","09:20",0.0,18.0,92.4,1011.4,320.8,2.2,4.8,337.7,0.02,16.8,20.5,"09:11:36",1
"18/10/11","09:30",0.0,18.0,92.2,1011.4,322.6,2.2,3.9,341.3,0.03,16.8,20.5,"09:24:00",1
"18/10/11","09:40",0.2,18.2,92.0,1011.6,305.6,1.5,3.4,331.6,0.03,16.9,20.5,"09:31:36",1
"18/10/11","09:50",0.0,18.3,92.0,1011.4,313.6,1.3,2.4,324.9,0.02,17.0,20.4,"09:41:52",1
"18/10/11","10:00",0.0,18.3,91.4,1011.2,333.7,1.5,2.8,317.6,0.04,16.9,20.5,"09:55:20",1
"18/10/11","10:10",0.0,18.4,90.5,1011.6,316.0,1.6,3.1,340.0,0.04,16.9,20.5,"10:07:36",1
"18/10/11","10:20",0.0,18.4,90.2,1011.9,331.7,2.0,3.4,339.0,0.03,16.8,20.5,"10:18:56",1
"18/10/11","10:30",0.0,18.5,90.0,1011.4,329.7,1.5,2.8,338.0,0.06,16.9,20.7,"10:26:24",1
"18/10/11","10:40",0.0,18.8,89.6,1011.9,333.6,1.1,2.7,351.2,0.05,17.1,20.6,"10:34:00",1
"18/10/11","10:50",0.0,18.6,88.7,1011.9,332.2,1.6,3.4,344.3,0.03,16.7,20.6,"10:47:12",1
"18/10/11","11:00",0.0,18.5,88.3,1011.6,323.4,1.5,2.9,330.1,0.03,16.6,20.5,"10:50:08",1
"18/10/11","11:10",0.0,18.5,88.2,1011.4,327.4,1.7,4.2,341.1,0.04,16.6,20.5,"11:01:12",1
"18/10/11","11:20",0.0,18.7,88.8,1011.4,330.1,1.3,3.4,336.7,0.06,16.9,20.5,"11:11:52",1
"18/10/11","11:30",0.0,18.7,88.4,1011.2,326.9,1.3,3.3,324.7,0.05,16.8,20.7,"11:23:04",1
"18/10/11","11:40",0.0,18.8,89.2,1011.2,339.4,1.0,2.2,333.4,0.04,17.0,20.8,"11:31:44",1
"18/10/11","11:50",0.0,18.8,89.1,1011.2,337.7,1.3,2.7,348.4,0.04,17.0,20.7,"11:45:20",1
"18/10/11","12:00",0.0,18.8,88.7,1010.7,341.1,1.3,2.5,340.9,0.04,16.9,20.5,"11:56:40",1
"18/10/11","12:10",0.0,18.8,89.4,1010.7,331.6,1.6,2.5,337.3,0.03,17.1,20.7,"12:05:44",1
"18/10/11","12:20",0.0,18.8,89.3,1010.7,331.8,1.7,2.5,339.0,0.05,17.0,20.5,"12:12:40",1
"18/10/11","12:30",0.0,19.0,89.5,1010.9,318.9,1.5,2.9,333.5,0.07,17.3,20.8,"12:21:12",1
"18/10/11","12:40",0.0,19.0,89.1,1010.7,307.4,1.5,2.1,345.3,0.07,17.2,20.5,"12:30:16",1
"18/10/11","12:50",0.0,19.1,89.1,1010.4,318.4,1.5,2.7,328.8,0.08,17.3,20.5,"12:43:20",1
"18/10/11","13:00",0.0,19.2,86.5,1010.2,315.7,1.0,1.8,335.4,0.09,16.9,20.7,"12:55:04",1
"18/10/11","13:10",0.0,19.5,85.7,1010.0,329.6,0.7,1.6,325.5,0.06,17.1,20.8,"13:04:32",1
"18/10/11","13:20",0.0,19.6,85.8,1010.0,3.5,0.3,1.6,340.4,0.06,17.2,20.9,"13:10:08",1
"18/10/11","13:30",0.0,19.7,85.4,1010.0,14.1,0.3,1.0,314.3,0.08,17.2,20.7,"13:23:04",1
"18/10/11","13:40",0.0,19.6,85.8,1009.7,253.3,0.5,0.9,117.2,0.05,17.2,20.8,"13:30:08",1
"18/10/11","13:50",0.0,19.6,85.7,1009.7,319.6,1.5,2.7,346.5,0.03,17.2,20.7,"13:49:28",1
"18/10/11","14:00",0.0,19.5,86.1,1010.0,324.3,1.5,2.4,336.4,0.02,17.2,20.7,"13:54:48",1
"18/10/11","14:10",0.0,19.2,86.2,1009.7,327.5,1.8,3.4,332.9,0.03,16.9,20.8,"14:07:12",1
"18/10/11","14:20",0.0,19.3,86.0,1009.5,325.4,2.0,3.4,339.3,0.03,16.9,21.0,"14:11:44",1
"18/10/11","14:30",0.0,19.4,85.9,1009.5,331.3,1.8,3.7,341.0,0.03,17.0,20.9,"14:24:00",1
"18/10/11","14:40",0.0,19.3,85.4,1009.7,320.4,1.5,2.7,328.1,0.03,16.8,20.6,"14:30:40",1
"18/10/11","14:50",0.0,19.1,84.5,1009.7,316.6,1.6,3.7,339.0,0.02,16.5,20.9,"14:42:56",1
"18/10/11","15:00",0.0,19.2,84.4,1009.5,324.7,1.3,3.4,328.7,0.02,16.5,20.8,"14:50:32",1
"18/10/11","15:10",0.0,19.1,84.8,1010.0,293.7,0.8,1.4,335.6,0.01,16.5,20.9,"15:00:40",1
"18/10/11","15:20",0.0,18.9,84.6,1009.7,271.9,1.0,1.4,332.8,0.00,16.3,20.7,"15:18:32",1
"18/10/11","15:30",0.0,18.8,84.8,1009.7,293.2,0.7,1.3,325.6,0.01,16.2,20.8,"15:26:56",1
"18/10/11","15:40",0.0,18.8,84.3,1009.7,312.9,1.2,1.8,321.5,0.00,16.1,20.8,"15:32:32",1
"18/10/11","15:50",0.0,19.0,85.4,1010.0,332.6,0.8,1.4,340.1,0.00,16.5,20.8,"15:40:56",1
"18/10/11","16:00",0.0,18.7,86.3,1010.2,300.6,0.8,1.4,334.4,0.00,16.4,20.8,"15:50:02",1
"18/10/11","16:10",0.0,18.5,86.8,1010.0,298.1,1.0,1.6,304.4,0.00,16.3,20.8,"16:07:04",1
"18/10/11","16:20",0.0,18.5,87.8,1010.0,320.3,1.0,2.0,334.9,0.00,16.5,20.9,"16:15:52",1
"18/10/11","16:30",0.0,18.4,88.3,1010.4,288.2,0.8,1.2,303.5,0.00,16.5,21.0,"16:22:24",1
"18/10/11","16:40",0.0,18.3,88.4,1010.0,295.2,1.2,1.7,261.4,0.00,16.4,20.7,"16:32:56",1
"18/10/11","16:50",0.0,18.3,88.6,1010.2,319.1,1.5,2.4,328.7,0.00,16.4,20.7,"16:48:32",1
"18/10/11","17:00",0.0,18.2,88.9,1010.4,319.8,1.2,1.9,317.6,0.00,16.4,20.8,"16:53:44",1
"18/10/11","17:10",0.0,18.1,89.2,1010.4,312.5,1.1,2.6,338.1,0.00,16.3,20.7,"17:07:52",1
"18/10/11","17:20",0.0,18.1,89.3,1010.7,320.6,1.8,3.9,351.8,0.00,16.4,20.6,"17:14:56",1
"18/10/11","17:30",0.0,18.0,89.5,1010.9,327.7,1.6,2.8,320.8,0.00,16.3,20.6,"17:22:32",1
"18/10/11","17:40",0.0,17.8,89.5,1010.7,324.2,1.5,3.1,321.4,0.00,16.1,20.8,"17:31:04",1
"18/10/11","17:50",0.0,17.8,89.5,1010.7,301.8,0.8,1.8,322.5,0.00,16.1,20.6,"17:45:04",1
"18/10/11","18:00",0.0,17.8,89.4,1010.2,311.3,1.1,2.4,335.4,0.00,16.1,20.6,"17:52:32",1
"18/10/11","18:10",0.0,17.8,89.4,1010.4,327.5,1.5,3.1,333.3,0.00,16.1,20.7,"18:04:08",1
"18/10/11","18:20",0.0,17.7,89.6,1010.9,305.9,1.0,1.8,333.2,0.00,16.0,20.5,"18:10:48",1
"18/10/11","18:30",0.0,17.7,89.9,1010.2,333.2,1.2,2.4,345.0,0.00,16.1,20.5,"18:24:48",1
"18/10/11","18:40",0.0,17.7,90.0,1010.9,320.6,1.5,3.4,339.8,0.00,16.1,20.6,"18:33:36",1
"18/10/11","18:50",0.0,17.8,90.1,1010.9,332.0,1.2,2.7,347.6,0.00,16.2,20.4,"18:43:04",1
"18/10/11","19:00",0.0,17.7,90.3,1010.7,313.7,1.1,2.0,320.0,0.00,16.1,20.4,"18:50:08",1
"18/10/11","19:10",0.0,17.6,90.6,1010.9,328.0,1.1,1.8,321.9,0.00,16.1,20.4,"19:07:36",1
"18/10/11","19:20",0.0,17.6,91.1,1011.2,330.4,1.0,1.6,324.5,0.00,16.2,20.3,"19:16:16",1
"18/10/11","19:30",0.0,17.6,91.5,1011.4,324.6,1.5,2.1,327.8,0.00,16.2,20.3,"19:25:12",1
"18/10/11","19:40",0.0,17.5,91.9,1010.9,324.3,2.0,3.1,325.0,0.00,16.2,20.4,"19:35:36",1
"18/10/11","19:50",0.0,17.4,92.1,1011.4,312.5,1.7,3.2,320.9,0.00,16.1,20.5,"19:42:48",1
"18/10/11","20:00",0.0,17.3,92.2,1011.2,322.1,1.7,2.8,323.1,0.00,16.1,20.4,"19:55:28",1
"18/10/11","20:10",0.0,17.3,92.4,1011.4,309.2,1.3,2.4,328.0,0.00,16.1,20.4,"20:01:44",1
"18/10/11","20:20",0.0,17.3,92.3,1011.2,328.0,1.5,2.4,332.3,0.00,16.1,20.2,"20:18:00",1
"18/10/11","20:30",0.0,17.3,92.4,1011.4,337.9,1.5,4.2,338.3,0.00,16.1,20.2,"20:27:44",1
"18/10/11","20:40",0.0,17.2,92.6,1011.6,338.7,1.6,3.3,325.7,0.00,16.0,20.2,"20:36:08",1
"18/10/11","20:50",0.0,17.2,92.8,1011.6,342.7,1.0,2.6,355.8,0.00,16.1,20.0,"20:46:00",1
"18/10/11","21:00",0.0,17.2,93.0,1012.1,327.5,1.2,2.6,342.1,0.00,16.1,20.3,"20:53:20",1
"18/10/11","21:10",0.0,17.0,93.2,1011.4,344.7,0.8,1.9,324.8,0.00,15.9,20.2,"21:00:08",1
"18/10/11","21:20",0.0,17.0,93.4,1011.4,329.7,1.1,2.1,312.7,0.00,16.0,20.3,"21:12:56",1
"18/10/11","21:30",0.0,16.9,93.8,1011.6,341.5,0.5,1.2,327.3,0.00,15.9,20.1,"21:24:32",1
"18/10/11","21:40",0.0,16.9,94.3,1011.6,314.2,0.5,1.2,289.8,0.00,16.0,20.2,"21:32:32",1
"18/10/11","21:50",0.0,16.9,94.4,1011.9,296.6,0.5,1.2,299.7,0.00,16.0,20.2,"21:45:36",1
"18/10/11","22:00",0.0,16.8,94.4,1010.9,355.4,0.6,1.3,347.2,0.00,15.9,20.2,"21:56:16",1
"18/10/11","22:10",0.0,16.7,94.5,1011.6,342.4,0.6,2.0,346.0,0.00,15.9,20.1,"22:06:40",1
"18/10/11","22:20",0.2,16.8,94.5,1011.6,313.8,1.1,2.1,326.2,0.00,16.0,20.3,"22:16:48",1
"18/10/11","22:30",0.0,16.9,94.5,1011.9,307.0,1.0,2.2,338.1,0.00,16.1,20.1,"22:29:04",1
"18/10/11","22:40",0.0,16.6,94.2,1012.1,319.1,1.2,3.6,323.9,0.00,15.7,20.2,"22:34:24",1
"18/10/11","22:50",0.0,16.7,93.9,1012.3,290.1,1.0,1.8,307.0,0.00,15.8,20.0,"22:46:32",1
"18/10/11","23:00",0.0,16.6,93.3,1011.9,296.0,1.2,2.1,354.4,0.00,15.6,20.1,"22:59:44",1
"18/10/11","23:10",0.0,16.8,92.3,1011.9,332.1,1.1,3.7,327.2,0.00,15.6,20.1,"23:03:36",1
"18/10/11","23:20",0.0,17.0,90.9,1011.9,297.0,0.8,1.8,333.9,0.00,15.5,20.2,"23:10:48",1
"18/10/11","23:30",0.0,16.9,90.0,1011.9,333.3,1.2,2.8,329.5,0.00,15.3,20.0,"23:28:40",1
"18/10/11","23:40",0.0,17.0,88.5,1011.9,305.9,1.5,3.4,319.8,0.00,15.1,19.9,"23:36:08",1
"18/10/11","23:50",0.0,17.1,86.6,1012.6,317.0,2.1,4.1,301.7,0.00,14.9,19.8,"23:49:52",1
"18/10/11","24:00",0.0,17.1,85.1,1012.3,316.8,2.0,3.7,346.0,0.00,14.6,20.0,"23:57:28",1
